When you browse on this site, cookies collect data to enhance your experience and personalize the content and advertising you see.
Visit our Privacy Policy to learn more. By continuing to use the site, you agree to this use of cookies and data.
  • în România
  • Lista ţărilor
  • Pe 7 zile
  • Temperatura apei
  • Hartă satelitară
  • Meteo pe hartă
  • Widget-uri
  • user-avatar
    Intrare

    Meteo pe oră la Arneburg

    Astăzi, 16 Februarie, Sâmbătă

    Timp Temperatura Precipitaţii Vânt Presiune Umiditate
    00:00 +5°C° 0 mm 2 m/s 768 mmHg 72%
    01:00 +5°C° 0 mm 2 m/s 768 mmHg 73%
    02:00 +5°C° 0 mm 2 m/s 768 mmHg 73%
    03:00 +5°C° 0 mm 2 m/s 767 mmHg 72%
    04:00 +4°C° 0 mm 2 m/s 767 mmHg 71%
    05:00 +4°C° 0 mm 2 m/s 767 mmHg 69%
    06:00 +4°C° 0 mm 2 m/s 767 mmHg 68%
    07:00 +4°C° 0 mm 2 m/s 766 mmHg 66%
    08:00 +4°C° 0 mm 3 m/s 766 mmHg 63%
    09:00 +5°C° 0 mm 3 m/s 766 mmHg 60%
    10:00 +8°C° 0 mm 3 m/s 766 mmHg 57%
    11:00 +9°C° 0 mm 3 m/s 766 mmHg 55%
    12:00 +11°C° 0 mm 3 m/s 766 mmHg 53%
    13:00 +12°C° 0 mm 3 m/s 766 mmHg 51%
    14:00 +12°C° 0 mm 3 m/s 766 mmHg 54%
    15:00 +12°C° 0 mm 3 m/s 765 mmHg 57%
    16:00 +13°C° 0 mm 2 m/s 765 mmHg 60%
    17:00 +10°C° 0 mm 2 m/s 765 mmHg 64%
    18:00 +9°C° 0 mm 2 m/s 765 mmHg 69%
    19:00 +7°C° 0 mm 2 m/s 765 mmHg 73%
    20:00 +7°C° 0 mm 2 m/s 765 mmHg 76%
    21:00 +6°C° 0 mm 2 m/s 766 mmHg 78%
    22:00 +6°C° 0 mm 2 m/s 766 mmHg 81%
    23:00 +5°C° 0 mm 2 m/s 766 mmHg 83%

    Mâine, 17 Februarie, Duminică

    Timp Temperatura Precipitaţii Vânt Presiune Umiditate
    00:00 +5°C° 0 mm 2 m/s 766 mmHg 85%
    01:00 +5°C° 0 mm 2 m/s 766 mmHg 86%
    02:00 +4°C° 0 mm 2 m/s 766 mmHg 87%
    03:00 +4°C° 0 mm 2 m/s 765 mmHg 88%
    04:00 +4°C° 0 mm 2 m/s 765 mmHg 88%
    05:00 +4°C° 0 mm 2 m/s 765 mmHg 88%
    06:00 +4°C° 0 mm 1 m/s 765 mmHg 88%
    07:00 +4°C° 0 mm 1 m/s 765 mmHg 88%
    08:00 +5°C° 0 mm 1 m/s 765 mmHg 83%
    09:00 +7°C° 0 mm 1 m/s 765 mmHg 78%
    10:00 +8°C° 0 mm 1 m/s 765 mmHg 74%
    11:00 +9°C° 0 mm 1 m/s 765 mmHg 68%
    12:00 +10°C° 0 mm 2 m/s 765 mmHg 63%
    13:00 +12°C° 0 mm 2 m/s 764 mmHg 58%
    14:00 +12°C° 0 mm 2 m/s 764 mmHg 61%
    15:00 +12°C° 0 mm 2 m/s 764 mmHg 63%
    16:00 +12°C° 0 mm 1 m/s 763 mmHg 66%
    17:00 +11°C° 0 mm 1 m/s 763 mmHg 69%
    18:00 +8°C° 0 mm 2 m/s 763 mmHg 73%
    19:00 +7°C° 0 mm 2 m/s 763 mmHg 77%
    20:00 +7°C° 0 mm 2 m/s 763 mmHg 77%
    21:00 +6°C° 0 mm 2 m/s 763 mmHg 78%
    22:00 +6°C° 0 mm 2 m/s 763 mmHg 78%
    23:00 +5°C° 0 mm 2 m/s 763 mmHg 79%

    Poimâine, 18 Februarie, Luni

    Timp Temperatura Precipitaţii Vânt Presiune Umiditate
    00:00 +5°C° 0 mm 2 m/s 763 mmHg 80%
    01:00 +5°C° 0 mm 2 m/s 763 mmHg 80%
    02:00 +4°C° 0 mm 2 m/s 763 mmHg 81%
    03:00 +4°C° 0 mm 2 m/s 763 mmHg 81%
    04:00 +4°C° 0 mm 2 m/s 762 mmHg 82%
    05:00 +3°C° 0 mm 2 m/s 762 mmHg 82%
    06:00 +3°C° 0 mm 2 m/s 762 mmHg 82%
    07:00 +4°C° 0 mm 1 m/s 762 mmHg 83%
    08:00 +5°C° 0 mm 1 m/s 762 mmHg 78%
    09:00 +7°C° 0 mm 1 m/s 762 mmHg 73%
    10:00 +8°C° 0 mm 1 m/s 762 mmHg 69%
    11:00 +9°C° 0 mm 2 m/s 762 mmHg 64%
    12:00 +10°C° 0 mm 2 m/s 762 mmHg 59%
    13:00 +13°C° 0 mm 2 m/s 761 mmHg 54%
    14:00 +13°C° 0 mm 2 m/s 761 mmHg 57%
    15:00 +13°C° 0 mm 2 m/s 761 mmHg 60%
    16:00 +13°C° 0 mm 1 m/s 760 mmHg 62%
    17:00 +10°C° 0 mm 2 m/s 760 mmHg 67%
    18:00 +8°C° 0 mm 2 m/s 760 mmHg 72%
    19:00 +7°C° 0 mm 2 m/s 760 mmHg 77%
    20:00 +6°C° 0 mm 2 m/s 760 mmHg 78%
    21:00 +6°C° 0 mm 2 m/s 760 mmHg 80%
    22:00 +6°C° 0 mm 2 m/s 760 mmHg 82%
    23:00 +5°C° 0 mm 2 m/s 760 mmHg 81%

    19 Februarie, Marţi

    Timp Temperatura Precipitaţii Vânt Presiune Umiditate
    00:00 +4°C° 0 mm 3 m/s 759 mmHg 81%
    01:00 +4°C° 0 mm 3 m/s 759 mmHg 81%
    02:00 +4°C° 0 mm 3 m/s 759 mmHg 82%
    03:00 +3°C° 0 mm 3 m/s 759 mmHg 83%
    04:00 +3°C° 0 mm 3 m/s 758 mmHg 84%
    05:00 +3°C° 0 mm 3 m/s 758 mmHg 85%
    06:00 +3°C° 0 mm 3 m/s 758 mmHg 85%
    07:00 +3°C° 0 mm 3 m/s 758 mmHg 85%
    08:00 +4°C° 0 mm 3 m/s 758 mmHg 80%
    09:00 +5°C° 0 mm 4 m/s 758 mmHg 75%
    10:00 +7°C° 0 mm 4 m/s 758 mmHg 70%
    11:00 +7°C° 0 mm 5 m/s 758 mmHg 71%
    12:00 +8°C° 0 mm 5 m/s 758 mmHg 72%
    13:00 +9°C° 0 mm 6 m/s 758 mmHg 73%
    14:00 +8°C° 0 mm 5 m/s 758 mmHg 74%
    15:00 +8°C° 0 mm 4 m/s 758 mmHg 75%
    16:00 +9°C° 0 mm 3 m/s 759 mmHg 75%
    17:00 +8°C° 0 mm 3 m/s 759 mmHg 79%
    18:00 +7°C° 0 mm 3 m/s 760 mmHg 83%
    19:00 +5°C° 0 mm 3 m/s 760 mmHg 87%
    20:00 +4°C° 0 mm 3 m/s 761 mmHg 89%
    21:00 +4°C° 0 mm 3 m/s 761 mmHg 90%
    22:00 +4°C° 0 mm 3 m/s 762 mmHg 92%
    23:00 +3°C° 0 mm 3 m/s 762 mmHg 92%

    20 Februarie, Miercuri

    Timp Temperatura Precipitaţii Vânt Presiune Umiditate
    00:00 +3°C° 0 mm 3 m/s 762 mmHg 92%
    01:00 +3°C° 0 mm 3 m/s 762 mmHg 93%
    02:00 +2°C° 0 mm 3 m/s 762 mmHg 93%
    03:00 +2°C° 0 mm 3 m/s 762 mmHg 93%
    04:00 +2°C° 0 mm 3 m/s 762 mmHg 93%
    05:00 +2°C° 0 mm 3 m/s 762 mmHg 93%
    06:00 +1°C° 0 mm 3 m/s 762 mmHg 93%
    07:00 +1°C° 0 mm 3 m/s 762 mmHg 92%
    08:00 +3°C° 0 mm 3 m/s 762 mmHg 87%
    09:00 +4°C° 0 mm 4 m/s 763 mmHg 81%
    10:00 +5°C° 0 mm 4 m/s 763 mmHg 76%
    11:00 +6°C° 0 mm 5 m/s 762 mmHg 71%
    12:00 +8°C° 0 mm 5 m/s 762 mmHg 67%
    13:00 +9°C° 0 mm 5 m/s 762 mmHg 63%
    14:00 +9°C° 0 mm 5 m/s 762 mmHg 63%
    15:00 +10°C° 0 mm 4 m/s 762 mmHg 63%
    16:00 +10°C° 0 mm 4 m/s 762 mmHg 63%
    17:00 +8°C° 0 mm 4 m/s 762 mmHg 66%
    18:00 +7°C° 0 mm 4 m/s 762 mmHg 69%
    19:00 +8°C° 0 mm 3 m/s 762 mmHg 72%
    20:00 +8°C° 0.1 mm 3 m/s 762 mmHg 75%
    21:00 +7°C° 0.1 mm 4 m/s 763 mmHg 77%
    22:00 +6°C° 0.1 mm 4 m/s 763 mmHg 80%
    23:00 +6°C° 0.4 mm 4 m/s 763 mmHg 82%

    21 Februarie, Joi

    Timp Temperatura Precipitaţii Vânt Presiune Umiditate
    00:00 +6°C° 0.4 mm 4 m/s 763 mmHg 84%
    01:00 +6°C° 0.4 mm 4 m/s 763 mmHg 86%
    02:00 +6°C° 0.4 mm 4 m/s 763 mmHg 88%
    03:00 +6°C° 0.4 mm 4 m/s 763 mmHg 89%
    04:00 +6°C° 0.4 mm 4 m/s 763 mmHg 90%
    05:00 +5°C° 0 mm 4 m/s 763 mmHg 91%
    06:00 +5°C° 0 mm 3 m/s 763 mmHg 92%
    07:00 +4°C° 0 mm 3 m/s 763 mmHg 93%
    08:00 +5°C° 0 mm 3 m/s 763 mmHg 91%
    09:00 +6°C° 0 mm 4 m/s 763 mmHg 89%
    10:00 +7°C° 0 mm 4 m/s 764 mmHg 87%
    11:00 +7°C° 1.4 mm 3 m/s 763 mmHg 89%
    12:00 +7°C° 1.4 mm 3 m/s 763 mmHg 92%
    13:00 +7°C° 1.4 mm 3 m/s 763 mmHg 94%
    14:00 +7°C° 0.9 mm 3 m/s 763 mmHg 94%
    15:00 +7°C° 0.9 mm 3 m/s 763 mmHg 93%
    16:00 +7°C° 0.9 mm 3 m/s 763 mmHg 93%
    17:00 +7°C° 0.1 mm 3 m/s 764 mmHg 94%
    18:00 +7°C° 0.1 mm 3 m/s 764 mmHg 94%
    19:00 +7°C° 0.1 mm 3 m/s 764 mmHg 95%
    20:00 +7°C° 0.1 mm 3 m/s 764 mmHg 95%
    21:00 +7°C° 0.1 mm 3 m/s 764 mmHg 96%
    22:00 +7°C° 0.1 mm 3 m/s 765 mmHg 96%
    23:00 +7°C° 0 mm 3 m/s 765 mmHg 96%
    Arată mai mult